Temp
-13 -12 -11 -11 -9 -10 -11 -11 -12 -12 -12 -12 -12 -11 -11 -11 -11 -11 -11 -12 -12 -12 -12 -12 -12 -13 -13 -13 -13 -13 -13 -13
-12 -12 -12 -11 -11 -11 -10 -10 -11 -12 -11 -12 -12 -11 -12 -11 -11 -11 -11 -12 -12 -12 -12 -13 -13 -14 -14 -14 -14 -14 -14 -13
-12 -12 -12 -12 -12 -12 -11 -11 -11 -11 -12 -12 -12 -12 -12 -12 -12 -12 -12 -11 -12 -12 -12 -13 -14 -14 -14 -14 -14 -14 -14 -13
-12 -13 -12 -12 -12 -11 -11 -11 -12 -11 -11 -12 -12 -12 -13 -13 -12 -12 -11 -12 -12 -12 -14 -15 -15 -14 -14 -14 -14 -14 -14 -13
-13 -13 -13 -12 -12 -12 -11 -11 -12 -12 -13 -13 -12 -12 -12 -12 -13 -12 -12 -12 -13 -14 -15 -15 -15 -15 -14 -14 -14 -14 -14 -14
-13 -12 -13 -12 -13 -13 -13 -12 -12 -12 -12 -13 -12 -12 -12 -12 -13 -14 -13 -14 -14 -16 -15 -15 -15 -14 -14 -14 -14 -14 -14 -14
-12 -12 -13 -13 -12 -12 -13 -12 -11 -12 -12 -12 -12 -12 -12 -13 -14 -15 -14 -15 -16 -16 -15 -15 -15 -15 -15 -14 -14 -14 -14 -13
-12 -12 -12 -12 -12 -12 -11 -12 -12 -12 -12 -12 -13 -13 -13 -13 -14 -15 -15 -16 -16 -16 -16 -15 -15 -15 -14 -14 -14 -14 -13 -13
-11 -11 -11 -12 -12 -12 -12 -12 -12 -12 -12 -13 -13 -13 -14 -15 -16 -16 -16 -16 -16 -16 -16 -15 -15 -15 -14 -14 -14 -13 -14 -14
-11 -11 -11 -12 -12 -12 -12 -12 -12 -13 -13 -13 -14 -14 -15 -16 -15 -16 -16 -16 -16 -16 -15 -15 -15 -15 -14 -14 -14 -14 -13 -14
-12 -12 -12 -12 -12 -12 -12 -12 -13 -13 -13 -14 -15 -15 -15 -15 -16 -16 -16 -16 -15 -15 -15 -15 -15 -14 -14 -15 -15 -14 -14 -14
-12 -12 -12 -12 -12 -12 -13 -14 -14 -14 -15 -15 -15 -15 -15 -16 -16 -16 -16 -16 -15 -15 -15 -15 -15 -14 -15 -15 -15 -15 -16 -15
-14 -13 -14 -14 -14 -14 -14 -14 -14 -14 -14 -14 -15 -15 -15 -16 -16 -15 -15 -16 -15 -15 -15 -15 -15 -15 -14 -14 -15 -15 -16 -15
-14 -14 -14 -14 -14 -14 -14 -14 -14 -15 -15 -15 -15 -15 -16 -16 -16 -16 -16 -15 -16 -15 -15 -15 -15 -15 -15 -15 -14 -15 -15 -15
-14 -14 -14 -14 -14 -14 -14 -14 -14 -15 -15 -15 -15 -16 -16 -15 -15 -16 -16 -16 -16 -16 -16 -15 -15 -15 -16 -15 -15 -16 -16 -16
-14 -14 -15 -15 -15 -15 -15 -15 -15 -15 -15 -15 -16 -16 -16 -16 -16 -16 -16 -16 -16 -16 -16 -16 -16 -16 -16 -16 -16 -16 -16 -16
-15 -15 -15 -15 -15 -15 -15 -15 -14 -14 -15 -15 -16 -15 -15 -16 -16 -16 -16 -16 -16 -16 -16 -16 -16 -15 -16 -16 -16 -16 -16 -17
-15 -15 -16 -16 -16 -16 -15 -15 -15 -15 -15 -15 -15 -15 -15 -16 -16 -16 -16 -16 -16 -17 -16 -16 -16 -16 -16 -16 -16 -17 -16 -17
-15 -15 -15 -15 -15 -15 -15 -15 -15 -16 -15 -15 -15 -15 -16 -15 -16 -16 -16 -16 -16 -16 -16 -16 -16 -16 -16 -16 -16 -17 -17 -17
-14 -14 -14 -14 -14 -14 -13 -14 -15 -14 -15 -15 -16 -16 -16 -16 -16 -16 -16 -16 -16 -16 -16 -16 -16 -16 -16 -16 -17 -17 -17 -18
Height
5769 5770 5772 5775 5748 5759 5760 5769 5778 5788 5795 5800 5805 5809 5812 5814 5816 5817 5817 5817 5817 5818 5819 5821 5822 5822 5823 5826 5828 5826 5827 5829
5765 5767 5766 5763 5756 5761 5763 5763 5765 5778 5785 5794 5799 5803 5805 5808 5810 5811 5812 5812 5811 5813 5815 5816 5817 5819 5820 5822 5824 5824 5823 5823
5762 5763 5761 5760 5756 5760 5770 5764 5770 5774 5781 5789 5793 5797 5798 5800 5802 5804 5805 5806 5807 5808 5809 5810 5812 5815 5817 5818 5820 5820 5822 5823
5761 5761 5763 5759 5756 5762 5765 5768 5775 5776 5777 5783 5789 5791 5792 5792 5794 5797 5799 5802 5802 5805 5805 5807 5810 5812 5814 5815 5817 5817 5817 5818
5758 5758 5758 5757 5759 5762 5768 5770 5771 5774 5779 5783 5784 5788 5786 5787 5788 5792 5796 5798 5799 5801 5802 5804 5808 5808 5811 5813 5814 5813 5815 5814
5756 5756 5756 5755 5758 5761 5763 5766 5769 5775 5777 5778 5780 5783 5783 5782 5784 5786 5791 5792 5794 5797 5799 5802 5805 5807 5808 5809 5810 5810 5810 5810
5751 5752 5753 5755 5758 5760 5762 5765 5768 5770 5772 5775 5778 5780 5780 5779 5780 5784 5787 5787 5790 5794 5797 5799 5800 5802 5805 5806 5806 5806 5806 5806
5751 5751 5753 5754 5755 5756 5759 5762 5764 5766 5769 5772 5773 5775 5775 5776 5778 5783 5785 5786 5789 5792 5795 5797 5799 5801 5801 5801 5801 5802 5801 5800
5748 5750 5750 5751 5753 5754 5756 5760 5763 5764 5766 5766 5768 5769 5771 5774 5777 5780 5783 5786 5788 5791 5792 5795 5796 5798 5799 5799 5797 5797 5797 5796
5746 5746 5747 5749 5749 5750 5751 5755 5759 5759 5762 5764 5764 5766 5770 5775 5777 5779 5782 5785 5787 5789 5789 5791 5793 5794 5795 5794 5793 5793 5792 5791
5741 5743 5745 5745 5748 5749 5751 5752 5756 5758 5761 5760 5764 5769 5774 5774 5776 5780 5783 5784 5786 5786 5787 5788 5789 5790 5790 5790 5788 5786 5784 5783
5740 5742 5743 5745 5745 5745 5748 5751 5755 5757 5761 5765 5768 5770 5770 5774 5777 5780 5781 5782 5783 5784 5784 5785 5784 5784 5784 5784 5783 5780 5778 5778
5742 5743 5744 5746 5750 5751 5751 5754 5758 5762 5765 5766 5768 5768 5769 5773 5774 5776 5777 5778 5778 5779 5779 5780 5779 5779 5776 5776 5776 5775 5774 5771
5746 5745 5747 5750 5750 5750 5753 5756 5758 5761 5761 5761 5763 5764 5766 5769 5771 5772 5771 5773 5773 5773 5773 5773 5772 5771 5771 5768 5766 5767 5765 5763
5745 5745 5746 5748 5748 5750 5750 5753 5755 5756 5757 5758 5760 5761 5764 5767 5768 5768 5768 5768 5769 5769 5767 5765 5764 5762 5761 5760 5758 5757 5756 5753
5745 5745 5745 5745 5746 5748 5749 5750 5751 5752 5754 5756 5757 5758 5762 5762 5762 5763 5764 5763 5763 5763 5761 5760 5757 5756 5754 5751 5749 5747 5745 5743
5743 5743 5742 5743 5745 5747 5748 5749 5751 5752 5752 5754 5755 5757 5758 5757 5757 5757 5759 5759 5757 5756 5754 5752 5749 5745 5745 5743 5739 5736 5734 5732
5740 5739 5739 5742 5744 5746 5747 5747 5747 5747 5748 5750 5749 5751 5752 5753 5752 5753 5752 5752 5750 5747 5745 5742 5741 5739 5734 5731 5729 5727 5724 5723
5737 5739 5740 5740 5738 5738 5740 5741 5740 5741 5743 5745 5746 5747 5747 5747 5747 5747 5745 5743 5742 5741 5739 5736 5733 5729 5726 5722 5718 5716 5715 5711
5734 5735 5735 5737 5737 5736 5737 5737 5736 5737 5739 5740 5740 5739 5739 5739 5739 5739 5738 5737 5736 5734 5733 5729 5725 5721 5715 5713 5710 5707 5703 5699
Wind_Speed
25 34 40 44 40 43 55 59 58 48 48 42 35 32 32 32 31 29 27 26 27 27 25 21 19 16 17 13 8 10 9 10
19 32 29 44 27 54 55 50 52 60 46 44 34 32 31 32 32 32 28 27 26 30 30 21 17 11 12 10 8 7 7 7
13 14 15 20 28 46 38 47 35 41 43 36 25 28 32 34 40 36 32 31 34 27 28 25 11 13 12 12 10 10 8 12
10 14 11 11 11 26 21 28 24 37 29 30 20 22 15 21 33 39 34 28 28 22 13 10 11 13 13 16 13 11 9 7
11 14 11 10 4 10 12 16 16 7 6 11 11 12 12 15 15 26 33 30 21 15 11 10 13 14 14 9 9 10 10 10
16 9 7 4 7 6 5 4 4 2 8 9 12 11 14 11 14 17 25 22 16 13 11 11 13 14 10 8 9 12 12 12
14 14 13 10 5 16 11 12 10 9 13 13 14 15 14 12 12 21 28 22 17 12 11 14 14 11 12 13 13 12 14 14
20 20 17 20 13 14 19 16 10 12 14 14 16 16 14 12 16 21 25 19 12 13 11 12 11 12 14 15 15 15 16 17
16 19 18 14 12 14 14 17 17 15 12 14 18 14 13 14 17 24 18 11 12 10 10 12 12 13 14 15 16 17 18 19
16 17 19 17 12 10 9 11 14 11 15 19 14 11 11 21 19 14 11 9 9 11 13 13 13 15 15 17 19 22 22 20
13 12 15 14 15 11 12 11 14 12 12 12 18 19 17 11 7 6 8 11 15 14 15 15 16 16 18 19 20 24 23 23
8 11 11 10 6 6 8 15 19 16 16 15 14 12 8 6 9 10 12 12 16 17 16 19 18 20 19 19 24 25 25 26
17 19 20 19 18 18 18 17 16 14 13 11 6 4 3 7 10 14 14 15 18 20 20 21 22 23 25 24 27 31 29 31
14 16 15 14 14 15 15 13 11 7 4 2 2 3 6 10 12 14 14 17 19 22 23 25 27 29 33 37 38 38 35 35
9 10 10 10 10 9 9 7 5 2 0 2 5 6 7 10 11 11 15 18 19 22 29 32 33 36 38 43 42 38 34 36
8 8 8 7 6 4 3 3 3 3 3 4 7 8 9 10 11 12 14 21 26 29 30 31 34 38 42 43 39 42 41 30
5 6 6 3 1 2 3 4 5 6 6 5 7 10 9 10 15 18 22 24 28 34 39 39 34 38 46 44 44 42 44 41
2 4 4 2 1 3 4 4 5 6 8 6 9 12 12 13 16 17 17 25 28 31 28 30 33 37 36 41 47 44 47 45
2 2 4 4 5 7 7 9 7 9 10 10 13 14 13 17 17 17 20 22 25 26 30 31 31 30 34 39 41 34 42 49
9 9 9 10 11 13 13 13 12 14 16 13 19 19 21 21 21 21 24 27 28 28 30 32 34 35 40 44 35 42 48 54
Wind_Direction
248 257 247 238 155 199 223 227 227 225 239 241 249 258 265 262 264 259 262 262 252 251 254 263 247 256 266 255 266 282 302 308
244 263 258 247 232 193 207 201 208 226 210 241 245 255 255 266 267 261 256 268 258 255 264 254 250 244 256 267 258 280 300 291
254 262 265 268 275 250 233 214 221 230 220 232 236 253 258 263 262 257 253 258 266 259 256 249 223 235 249 248 260 277 268 266
250 273 284 299 265 255 223 202 214 225 225 226 242 249 248 263 263 249 255 269 256 264 235 201 217 238 252 265 262 266 258 258
267 274 275 294 340 239 195 211 195 102 191 183 221 243 259 246 262 259 253 263 257 218 183 207 227 239 258 265 259 242 244 263
265 269 276 248 271 197 158 161 214 213 241 268 257 266 268 256 256 261 250 226 194 178 203 224 241 254 246 244 221 243 258 268
262 254 263 234 226 205 226 202 217 227 256 265 252 258 272 258 248 253 251 197 171 190 209 228 231 230 231 239 242 255 262 270
243 242 244 224 225 232 239 225 241 248 252 246 262 270 264 245 241 241 232 162 184 198 212 231 229 226 232 247 255 261 273 281
242 236 233 233 244 229 225 216 239 255 247 250 264 264 239 234 223 186 162 182 195 208 230 226 222 236 253 261 270 274 283 289
236 233 224 223 216 212 207 221 237 252 259 252 249 222 210 187 160 158 179 198 232 237 217 221 238 258 265 277 289 286 286 293
226 217 209 214 208 225 230 238 244 229 211 147 138 147 152 149 164 203 233 241 242 227 224 233 247 258 272 285 296 294 296 298
226 202 204 203 179 184 162 145 139 134 129 142 153 157 151 173 209 223 237 248 235 231 237 248 258 263 267 281 303 309 301 296
119 119 113 113 123 123 122 132 141 149 157 153 150 159 184 228 248 249 255 257 245 238 250 262 268 277 278 280 295 302 297 291
126 119 121 123 122 118 124 126 129 133 119 111 188 218 242 246 240 254 266 259 250 255 263 270 278 281 282 284 289 290 296 296
119 117 123 118 117 112 110 113 114 106 49 316 300 292 283 275 276 267 276 272 261 273 279 282 282 286 289 290 290 285 289 300
118 118 109 97 83 75 55 48 25 351 328 316 304 301 293 287 290 285 277 283 286 283 279 283 282 288 286 282 289 286 285 299
103 101 77 71 15 326 316 288 274 271 275 301 282 277 274 290 300 298 299 300 293 296 283 279 279 281 282 294 294 289 293 294
92 74 67 74 311 296 305 307 267 262 269 263 261 271 285 277 295 301 307 309 308 316 308 293 285 288 288 296 289 283 289 292
329 246 247 259 291 305 309 297 303 298 289 283 275 271 273 276 288 300 304 307 304 310 309 305 295 287 289 293 297 303 294 293
297 293 290 278 270 280 278 278 283 279 273 260 270 280 290 287 285 292 300 301 304 301 297 298 294 298 295 284 296 297 296 296